Location: Goettingen
(51.5300°N, 9.9433°E)
Time: 17:29:22
(UTC+02:00)

ISS - Pass Details

Date: 21 May 2018
Orbit: 402 x 407 km, 51.6° (Epoch: 27 May)

Event Time Altitude Azimuth Distance (km) Brightness Sun altitude
Rises 03:56:00 0° 284° (WNW) 2,321 -0.2 -10.3°
Reaches altitude 10° 03:58:11 10° 274° (W) 1,459 -1.3 -10.1°
Maximum altitude 04:01:10 34° 208° (SSW) 688 -3.2 -9.8°
Drops below altitude 10° 04:04:10 10° 142° (SE) 1,453 -1.1 -9.5°
Sets 04:06:20 0° 132° (SE) 2,309 0.0 -9.3°
